Weather History for Hayward, WI

Change the Weather History Date:

Thursday, October 13, 2011

  Actual Average Record
Temperature  
Mean Temperature 52 °F -  
Max Temperature 55 °F 60 °F 77 °F (2000)
Min Temperature 46 °F 42 °F 24 °F (2002)
Degree Days  
Heating Degree Days 14    
Growing Degree Days 2 (Base 50)    
Moisture  
Dew Point 51 °F    
Average Humidity 92    
Maximum Humidity 100    
Minimum Humidity 77    
Precipitation  
Precipitation 0.26 in - - ()
Sea Level Pressure  
Sea Level Pressure 29.58 in    
Wind  
Wind Speed 2 mph (WNW)    
Max Wind Speed 9 mph    
Max Gust Speed -    
Visibility 8 miles    
Events Rain    
Averages and records for this station are not official NWS values.
T = Trace of Precipitation, MM = Missing Value Source: NWS Daily Summary

Daily Weather History Graph

Daily Weather History Graph

Search for Another Location

Airport:

Trip Planner

Search our weather history database for the weather conditions in past years. The results will help you decide how hot, cold, wet, or windy it might be!

Date:

Astronomy

Oct. 13, 2011 Rise Set
Actual Time 7:19 AM CDT 6:23 PM CDT
Civil Twilight 6:49 AM CDT 6:53 PM CDT
Nautical Twilight 6:14 AM CDT 7:28 PM CDT
Astronomical Twilight 5:40 AM CDT 8:02 PM CDT
Moon 6:49 PM CDT (10/13) 9:00 AM CDT (10/13)
Length of Visible Light 12h 04m
Length of Day
11h 04m
Full, 98% of the Moon is Illuminated
Oct 13
Full
Oct 19
Last Quarter
Oct 26
New
Nov 2
First Quarter
Nov 10
Full

Hourly Weather History & Observations

Time (CDT) Temp. Windchill Dew Point Humidity Pressure Visibility Wind Dir Wind Speed Gust Speed Precip Events Conditions
1:53 AM 54.0 °F - 54.0 °F 100% 29.65 in 8.0 mi Calm Calm - 0.05 in Rain Light Rain
2:03 AM 55.4 °F - 53.6 °F 94% 29.65 in 8.0 mi Calm Calm - 0.00 in   Overcast
2:53 AM 54.0 °F - 54.0 °F 100% 29.62 in 8.0 mi Calm Calm - 0.01 in   Overcast
3:53 AM 54.0 °F - 54.0 °F 100% 29.61 in 8.0 mi West 3.5 mph - N/A   Overcast
4:25 AM 53.6 °F - 53.6 °F 100% 29.61 in 6.0 mi Calm Calm - 0.01 in Rain Light Rain
4:53 AM 54.0 °F - 54.0 °F 100% 29.61 in 5.0 mi Calm Calm - 0.03 in Rain Light Rain
5:06 AM 53.6 °F - 53.6 °F 100% 29.61 in 5.0 mi Calm Calm - 0.01 in Rain Light Rain
5:53 AM 54.0 °F - 53.1 °F 97% 29.60 in 6.0 mi Calm Calm - 0.06 in Rain Light Rain
6:13 AM 53.6 °F - 53.6 °F 100% 29.59 in 3.0 mi Calm Calm - 0.03 in Rain Rain
6:16 AM 53.6 °F - 53.6 °F 100% 29.60 in 3.0 mi Calm Calm - 0.04 in Rain Rain
6:53 AM 54.0 °F - 53.1 °F 97% 29.60 in 8.0 mi Calm Calm - 0.06 in Rain Light Rain
7:53 AM 54.0 °F - 53.1 °F 97% 29.59 in 10.0 mi Calm Calm - 0.02 in Rain Light Rain
8:48 AM 55.4 °F - 53.6 °F 94% 29.58 in 10.0 mi Calm Calm - 0.00 in   Overcast
9:53 AM 55.0 °F - 54.0 °F 96% 29.57 in 4.0 mi WNW 3.5 mph - N/A   Overcast
10:29 AM 55.4 °F - 53.6 °F 94% 29.56 in 8.0 mi Calm Calm - 0.01 in   Overcast
10:36 AM 55.4 °F - 53.6 °F 94% 29.56 in 9.0 mi Calm Calm - 0.01 in   Overcast
10:53 AM 55.0 °F - 54.0 °F 96% 29.57 in 10.0 mi WNW 4.6 mph - 0.01 in   Overcast
11:39 AM 53.6 °F - 53.6 °F 100% 29.55 in 2.5 mi WNW 5.8 mph - 0.00 in Rain Light Rain
11:46 AM 53.6 °F - 53.6 °F 100% 29.55 in 3.0 mi Calm Calm - 0.00 in   Overcast
11:53 AM 54.0 °F - 53.1 °F 97% 29.56 in 2.5 mi Variable 5.8 mph - 0.00 in Rain Light Rain
12:04 PM 53.6 °F - 53.6 °F 100% 29.55 in 7.0 mi Variable 5.8 mph - 0.00 in   Overcast
12:25 PM 53.6 °F - 51.8 °F 94% 29.55 in 10.0 mi West 9.2 mph - 0.00 in   Overcast
12:33 PM 53.6 °F - 51.8 °F 94% 29.55 in 10.0 mi Variable 5.8 mph - 0.00 in   Overcast
12:41 PM 53.6 °F - 51.8 °F 94% 29.55 in 10.0 mi Variable 4.6 mph - 0.00 in   Overcast
12:53 PM 54.0 °F - 52.0 °F 93% 29.55 in 10.0 mi Variable 4.6 mph - 0.00 in   Overcast
1:13 PM 55.4 °F - 51.8 °F 88% 29.54 in 10.0 mi Variable 4.6 mph - N/A   Overcast
1:53 PM 54.0 °F - 51.1 °F 90% 29.55 in 10.0 mi Variable 4.6 mph - N/A   Overcast
2:41 PM 55.4 °F - 51.8 °F 88% 29.53 in 10.0 mi Calm Calm - N/A   Overcast
2:53 PM 55.9 °F - 50.0 °F 80% 29.54 in 10.0 mi Variable 3.5 mph - N/A   Overcast
3:53 PM 54.0 °F - 52.0 °F 93% 29.55 in 9.0 mi Calm Calm - 0.02 in Rain Light Rain
4:26 PM 55.4 °F - 50.0 °F 82% 29.54 in 10.0 mi Variable 4.6 mph - 0.00 in   Overcast
4:53 PM 54.0 °F - 48.9 °F 83% 29.55 in 10.0 mi Variable 4.6 mph - 0.00 in   Overcast
5:53 PM 53.1 °F - 48.0 °F 83% 29.57 in 10.0 mi Variable 5.8 mph - N/A   Overcast
7:53 PM 51.1 °F - 45.0 °F 80% 29.58 in 10.0 mi NNW 5.8 mph - 0.00 in   Overcast
8:53 PM 50.0 °F - 44.1 °F 80% 29.59 in 10.0 mi Variable 3.5 mph - N/A   Overcast
9:53 PM 50.0 °F - 43.0 °F 77% 29.58 in 10.0 mi Calm Calm - N/A   Overcast
10:53 PM 48.0 °F - 42.1 °F 80% 29.58 in 10.0 mi Calm Calm - N/A   Overcast
11:53 PM 46.0 °F 44.8 °F 39.9 °F 79% 29.57 in 10.0 mi Variable 3.5 mph - N/A   Partly Cloudy